Date String (YYYY-MM-DD hh:mm:ss) UTC,Instrument flags,Ambient pressure (hPa),Sample flow (lpm),Bypass flow (lpm),Sample temperature (°C),Ambient temperature (°C),ASC tube jacket temperature (°C),LED temperature (°C),Box temperature (°C),Sample RH (%),Span deviation,Mass concentration (μg/m³),Mass concentration (μg/m³),Mass concentration (μg/m³)
DateTimeUTC,F1_M11,P_M11,Q1_M11,Q2_M11,T1_M11,T2_M11,T3_M11,T4_M11,T5_M11,U1_M11,ZSPAN_M11,X0_M11,X2_M11,X1_M11
2022-05-24 01:00:00,,0825.4,5.00,0.00,29.9,28.8,00.0,38.9,31.7,14.3,0000.0,0006.94,0003.06,0002.22
2022-05-24 01:01:00,,0825.4,5.00,0.00,29.9,28.8,00.0,38.9,31.7,14.3,0000.0,0006.70,0003.07,0002.24
2022-05-24 01:02:00,,0825.4,5.00,0.00,29.9,28.9,00.0,38.9,31.7,14.3,0000.0,0006.52,0003.06,0002.25
2022-05-24 01:03:00,,0825.4,5.01,0.00,29.9,28.9,00.0,38.9,31.7,14.2,0000.0,0005.66,0003.04,0002.28
2022-05-24 01:04:00,,0825.4,5.00,0.00,29.9,28.9,00.0,38.9,31.7,14.2,0000.0,0006.12,0003.11,0002.31
2022-05-24 01:05:00,,0825.4,5.01,0.00,29.9,28.9,00.0,38.9,31.7,14.3,0000.0,0006.60,0003.12,0002.32
2022-05-24 01:06:00,,0825.4,4.98,0.00,29.9,28.9,00.0,38.9,31.7,14.2,0000.0,0006.53,0003.12,0002.35
2022-05-24 01:07:00,,0825.5,5.00,0.00,29.9,28.8,00.0,38.9,31.7,14.2,0000.0,0007.33,0003.13,0002.37
2022-05-24 01:08:00,,0825.5,5.00,0.00,29.9,28.8,00.0,38.9,31.7,14.4,0000.0,0007.43,0003.15,0002.40
2022-05-24 01:09:00,,0825.5,5.01,0.00,29.9,28.8,00.0,38.9,31.7,14.5,0000.0,0006.99,0003.17,0002.43
2022-05-24 01:10:00,,0825.5,5.00,0.00,29.9,28.8,00.0,38.9,31.7,14.5,0000.0,0006.75,0003.18,0002.44
2022-05-24 01:11:00,,0825.5,4.98,0.00,29.9,28.8,00.0,38.9,31.7,14.5,0000.0,0006.71,0003.17,0002.45
2022-05-24 01:12:00,,0825.5,5.00,0.00,29.9,28.8,00.0,38.9,31.7,14.6,0000.0,0006.74,0003.18,0002.46
2022-05-24 01:13:00,,0825.6,5.01,0.00,29.9,28.8,00.0,38.9,31.7,14.7,0000.0,0006.90,0003.20,0002.47
2022-05-24 01:14:00,,0825.6,4.99,0.00,29.9,28.8,00.0,38.9,31.7,14.9,0000.0,0006.84,0003.19,0002.46
2022-05-24 01:15:00,,0825.6,4.99,0.00,29.9,28.8,00.0,38.9,31.7,15.0,0000.0,0006.22,0003.17,0002.47
2022-05-24 01:16:00,,0825.6,5.01,0.00,29.9,28.8,00.0,38.9,31.7,15.0,0000.0,0005.57,0003.14,0002.46
2022-05-24 01:17:00,,0825.6,5.01,0.00,29.9,28.8,00.0,38.9,31.7,15.0,0000.0,0005.66,0003.16,0002.45
2022-05-24 01:18:00,,0825.5,5.00,0.00,29.9,28.8,00.0,38.9,31.6,14.8,0000.0,0004.74,0003.15,0002.44
2022-05-24 01:19:00,,0825.6,5.00,0.00,29.9,28.8,00.0,38.9,31.6,14.7,0000.0,0004.80,0003.16,0002.42
2022-05-24 01:20:00,,0825.6,5.00,0.00,29.8,28.7,00.0,38.9,31.6,14.9,0000.0,0005.71,0003.13,0002.41
2022-05-24 01:21:00,,0825.6,5.00,0.00,29.8,28.7,00.0,38.8,31.5,15.0,0000.0,0006.28,0003.14,0002.40
2022-05-24 01:22:00,,0825.6,5.00,0.00,29.8,28.7,00.0,38.8,31.5,14.9,0000.0,0006.30,0003.12,0002.39
2022-05-24 01:23:00,,0825.6,5.00,0.00,29.8,28.7,00.0,38.8,31.5,15.2,0000.0,0006.50,0003.14,0002.39
2022-05-24 01:24:00,,0825.7,5.02,0.00,29.8,28.6,00.0,38.8,31.5,15.4,0000.0,0007.00,0003.15,0002.39
2022-05-24 01:25:00,,0825.6,5.00,0.00,29.8,28.6,00.0,38.8,31.5,15.4,0000.0,0007.87,0003.19,0002.40
2022-05-24 01:26:00,,0825.7,5.00,0.00,29.8,28.6,00.0,38.8,31.5,15.1,0000.0,0008.18,0003.20,0002.39
2022-05-24 01:27:00,,0825.7,4.99,0.00,29.8,28.6,00.0,38.8,31.5,15.2,0000.0,0008.44,0003.24,0002.38
2022-05-24 01:28:00,,0825.7,5.00,0.00,29.7,28.6,00.0,38.8,31.5,15.1,0000.0,0008.34,0003.21,0002.37
2022-05-24 01:29:00,,0825.7,5.01,0.00,29.7,28.6,00.0,38.8,31.5,14.6,0000.0,0008.39,0003.17,0002.36
2022-05-24 01:30:00,,0825.7,4.99,0.00,29.7,28.6,00.0,38.8,31.4,14.5,0000.0,0008.67,0003.15,0002.34
2022-05-24 01:31:00,,0825.7,5.00,0.00,29.7,28.6,00.0,38.8,31.4,14.7,0000.0,0008.28,0003.15,0002.34
2022-05-24 01:32:00,,0825.7,4.99,0.00,29.7,28.6,00.0,38.7,31.4,14.9,0000.0,0008.09,0003.14,0002.33
2022-05-24 01:33:00,,0825.7,5.01,0.00,29.7,28.5,00.0,38.7,31.4,14.8,0000.0,0008.14,0003.15,0002.32
2022-05-24 01:34:00,,0825.8,5.01,0.00,29.7,28.5,00.0,38.7,31.4,14.9,0000.0,0008.17,0003.16,0002.32
2022-05-24 01:35:00,,0825.8,5.00,0.00,29.7,28.5,00.0,38.7,31.4,15.0,0000.0,0008.41,0003.16,0002.32
2022-05-24 01:36:00,,0825.8,4.99,0.00,29.6,28.5,00.0,38.7,31.3,15.2,0000.0,0007.76,0003.14,0002.32
2022-05-24 01:37:00,,0825.8,5.00,0.00,29.6,28.5,00.0,38.7,31.3,15.3,0000.0,0007.77,0003.13,0002.31
2022-05-24 01:38:00,,0825.8,5.01,0.00,29.6,28.4,00.0,38.7,31.3,15.4,0000.0,0007.40,0003.01,0002.31
2022-05-24 01:39:00,,0825.8,5.01,0.00,29.6,28.4,00.0,38.7,31.3,15.4,0000.0,0007.41,0002.99,0002.30
2022-05-24 01:40:00,,0825.8,4.99,0.00,29.6,28.4,00.0,38.6,31.3,15.4,0000.0,0007.61,0003.04,0002.29
2022-05-24 01:41:00,,0825.8,5.00,0.00,29.6,28.4,00.0,38.6,31.3,15.5,0000.0,0007.26,0003.05,0002.30
2022-05-24 01:42:00,,0825.8,4.99,0.00,29.6,28.4,00.0,38.6,31.3,15.7,0000.0,0006.88,0003.05,0002.30
2022-05-24 01:43:00,,0825.8,5.01,0.00,29.5,28.4,00.0,38.6,31.3,15.8,0000.0,0006.64,0003.04,0002.31
2022-05-24 01:44:00,,0825.8,5.00,0.00,29.5,28.3,00.0,38.6,31.2,15.9,0000.0,0006.70,0003.09,0002.33
2022-05-24 01:45:00,,0825.8,5.00,0.00,29.5,28.3,00.0,38.6,31.2,15.9,0000.0,0006.74,0003.12,0002.36
2022-05-24 01:46:00,,0825.8,5.01,0.00,29.5,28.3,00.0,38.6,31.2,16.1,0000.0,0005.77,0003.07,0002.37
2022-05-24 01:47:00,,0825.8,5.00,0.00,29.5,28.3,00.0,38.6,31.2,16.0,0000.0,0005.44,0003.05,0002.38
2022-05-24 01:48:00,,0825.8,4.99,0.00,29.5,28.3,00.0,38.6,31.2,16.0,0000.0,0005.49,0003.07,0002.38
2022-05-24 01:49:00,,0825.9,5.00,0.00,29.5,28.3,00.0,38.5,31.2,16.0,0000.0,0005.83,0003.17,0002.40
2022-05-24 01:50:00,,0825.9,4.99,0.00,29.5,28.3,00.0,38.5,31.2,16.0,0000.0,0006.09,0003.20,0002.42
2022-05-24 01:51:00,,0825.9,5.00,0.00,29.4,28.3,00.0,38.5,31.2,15.9,0000.0,0005.78,0003.18,0002.43
2022-05-24 01:52:00,,0825.9,5.00,0.00,29.4,28.3,00.0,38.5,31.2,15.9,0000.0,0005.65,0003.17,0002.43
2022-05-24 01:53:00,,0825.9,5.00,0.00,29.4,28.3,00.0,38.5,31.2,15.8,0000.0,0006.23,0003.18,0002.44
2022-05-24 01:54:00,,0825.9,5.00,0.00,29.4,28.3,00.0,38.5,31.2,15.8,0000.0,0006.19,0003.17,0002.43
2022-05-24 01:55:00,,0825.8,4.99,0.00,29.4,28.3,00.0,38.5,31.2,15.8,0000.0,0006.35,0003.18,0002.43
2022-05-24 01:56:00,,0825.9,5.00,0.00,29.4,28.3,00.0,38.5,31.1,15.7,0000.0,0006.43,0003.13,0002.40
2022-05-24 01:57:00,,0825.9,5.00,0.00,29.4,28.3,00.0,38.5,31.1,15.7,0000.0,0006.37,0003.11,0002.38
2022-05-24 01:58:00,,0825.9,5.00,0.00,29.4,28.3,00.0,38.4,31.1,15.7,0000.0,0006.38,0003.12,0002.37
2022-05-24 01:59:00,,0825.9,5.01,0.00,29.4,28.3,00.0,38.4,31.1,15.6,0000.0,0006.28,0003.13,0002.37
